| time (UTC) | temp C | wind direction | speed KPH | gust KPH | rain 1hr cm | rain 24hr cm | rain mn cm | humidity % | barometer mb |
| 20260906191034 | 12 | 340 | 4.8 | 9.7 | 0.00 | 0.81 | 0.13 | 99 | 1000.5 |
| 20260906190030 | 12 | 327 | 4.8 | 9.7 | 0.00 | 0.81 | 0.13 | 99 | 1000.4 |
| 20260906185027 | 12 | 327 | 6.4 | 9.7 | 0.00 | 0.81 | 0.13 | 99 | 1000.5 |
| 20260906184022 | 12 | 345 | 8.0 | 9.7 | 0.00 | 0.81 | 0.13 | 99 | 1000.5 |
| 20260906183040 | 12 | 299 | 6.4 | 9.7 | 0.03 | 0.81 | 0.13 | 99 | 1000.5 |
| 20260906182138 | 12 | 315 | 6.4 | 9.7 | 0.03 | 0.81 | 0.13 | 99 | 1000.6 |
| 20260906181112 | 12 | 327 | 6.4 | 9.7 | 0.03 | 0.81 | 0.13 | 99 | 1000.6 |
| 20260906180108 | 12 | 325 | 3.2 | 9.7 | 0.03 | 0.81 | 0.13 | 99 | 1000.7 |
| 20260906175105 | 12 | 317 | 6.4 | 9.7 | 0.03 | 0.81 | 0.13 | 99 | 1000.6 |
| 20260906174102 | 12 | 352 | 6.4 | 9.7 | 0.03 | 0.81 | 0.13 | 99 | 1000.7 |
| 20260906173057 | 12 | 5 | 6.4 | 9.7 | 0.00 | 0.79 | 0.10 | 99 | 1000.5 |
| 20260906172054 | 12 | 333 | 6.4 | 9.7 | 0.00 | 0.79 | 0.10 | 99 | 1000.5 |
| 20260906171112 | 13 | 339 | 6.4 | 9.7 | 0.00 | 0.79 | 0.10 | 99 | 1000.3 |
| 20260906170047 | 13 | 327 | 3.2 | 9.7 | 0.00 | 0.79 | 0.10 | 99 | 1000.2 |
| 20260906165045 | 13 | 338 | 0.0 | 8.0 | 0.00 | 0.79 | 0.10 | 99 | 1000.0 |
| 20260906164039 | 13 | 315 | 0.0 | 6.4 | 0.00 | 0.79 | 0.10 | 99 | 999.8 |
| 20260906163119 | 13 | 270 | 0.0 | 6.4 | 0.00 | 0.79 | 0.10 | 99 | 999.5 |
| 20260906162032 | 13 | 0.0 | 0.0 | 0.00 | 0.79 | 0.10 | 99 | 999.6 | |
| 20260906161029 | 14 | 0.0 | 0.0 | 0.03 | 0.79 | 0.10 | 99 | 999.2 | |
| 20260906160025 | 14 | 0.0 | 4.8 | 0.03 | 0.79 | 0.10 | 99 | 999.0 | |
| 20260906155022 | 14 | 0.0 | 0.0 | 0.03 | 0.79 | 0.10 | 99 | 998.9 | |
| 20260906154018 | 14 | 0.0 | 0.0 | 0.03 | 0.79 | 0.10 | 99 | 998.8 | |
| 20260906153136 | 14 | 0.0 | 0.0 | 0.03 | 0.79 | 0.10 | 99 | 998.9 | |
| 20260906152112 | 14 | 0.0 | 3.2 | 0.03 | 0.79 | 0.10 | 99 | 999.2 | |
| 20260906151108 | 14 | 0.0 | 3.2 | 0.00 | 0.76 | 0.05 | 99 | 999.5 | |
| 20260906150106 | 14 | 0.0 | 3.2 | 0.00 | 0.76 | 0.05 | 99 | 999.9 | |
| 20260906145104 | 14 | 0.0 | 0.0 | 0.00 | 0.76 | 0.05 | 99 | 1000.1 | |
| 20260906144101 | 14 | 0.0 | 0.0 | 0.00 | 0.76 | 0.05 | 99 | 1000.4 | |
| 20260906143056 | 14 | 0.0 | 3.2 | 0.00 | 0.76 | 0.05 | 99 | 1000.7 | |
| 20260906142051 | 14 | 0.0 | 0.0 | 0.00 | 0.76 | 0.05 | 99 | 1001.0 | |
| 20260906141128 | 14 | 0.0 | 0.0 | 0.00 | 0.76 | 0.05 | 99 | 1001.2 | |
| 20260906140044 | 14 | 0.0 | 0.0 | 0.00 | 0.76 | 0.05 | 99 | 1001.5 | |
| 20260906135040 | 14 | 0.0 | 0.0 | 0.00 | 0.76 | 0.05 | 99 | 1001.8 | |
| 20260906134059 | 14 | 0.0 | 0.0 | 0.00 | 0.76 | 0.05 | 99 | 1002.0 | |
| 20260906133033 | 14 | 0.0 | 0.0 | 0.00 | 0.76 | 0.05 | 99 | 1002.2 | |
| 20260906132030 | 14 | 0.0 | 0.0 | 0.03 | 0.76 | 0.05 | 99 | 1002.3 | |
| 20260906131027 | 14 | 0.0 | 0.0 | 0.03 | 0.76 | 0.05 | 99 | 1002.5 | |
| 20260906130023 | 14 | 0.0 | 1.6 | 0.03 | 0.76 | 0.05 | 99 | 1002.7 | |
| 20260906125041 | 14 | 0.0 | 0.0 | 0.05 | 0.76 | 0.05 | 99 | 1003.0 | |
| 20260906124016 | 14 | 0.0 | 4.8 | 0.10 | 0.76 | 0.05 | 99 | 1003.1 | |
| 20260906123115 | 14 | 0.0 | 0.0 | 0.13 | 0.76 | 0.05 | 99 | 1003.2 | |
| 20260906122110 | 14 | 0.0 | 0.0 | 0.13 | 0.71 | 0.03 | 99 | 1003.2 | |
| 20260906121106 | 14 | 0.0 | 0.0 | 0.15 | 0.71 | 0.03 | 99 | 1003.3 | |
| 20260906115059 | 14 | 293 | 0.0 | 6.4 | 0.15 | 0.69 | 0.69 | 99 | 1003.5 |
| 20260906114116 | 14 | 0 | 0.0 | 6.4 | 0.15 | 0.66 | 0.66 | 99 | 1003.7 |
| 20260906113053 | 14 | 0.0 | 0.0 | 0.13 | 0.64 | 0.64 | 99 | 1003.9 | |
| 20260906112050 | 14 | 0.0 | 0.0 | 0.10 | 0.61 | 0.61 | 99 | 1004.0 | |
| 20260906111046 | 14 | 0.0 | 0.0 | 0.05 | 0.56 | 0.56 | 99 | 1004.2 | |
| 20260906110041 | 14 | 270 | 0.0 | 6.4 | 0.03 | 0.53 | 0.53 | 99 | 1004.3 |
| 20260906105039 | 14 | 0.0 | 0.0 | 0.03 | 0.53 | 0.53 | 99 | 1004.3 | |
| 20260906104035 | 14 | 0.0 | 0.0 | 0.00 | 0.51 | 0.51 | 99 | 1004.5 | |
| 20260906103031 | 14 | 0.0 | 0.0 | 0.00 | 0.51 | 0.51 | 99 | 1004.7 | |
| 20260906102028 | 14 | 293 | 0.0 | 9.7 | 0.00 | 0.51 | 0.51 | 99 | 1005.0 |
| 20260906101025 | 14 | 0.0 | 0.0 | 0.05 | 0.51 | 0.51 | 99 | 1005.1 | |
| 20260906100021 | 14 | 0.0 | 0.0 | 0.05 | 0.51 | 0.51 | 99 | 1005.3 | |
| 20260906095017 | 14 | 0.0 | 0.0 | 0.05 | 0.51 | 0.51 | 99 | 1005.4 | |
| 20260906094114 | 14 | 0.0 | 0.0 | 0.05 | 0.51 | 0.51 | 99 | 1005.4 | |
| 20260906093112 | 14 | 0.0 | 0.0 | 0.05 | 0.51 | 0.51 | 99 | 1005.4 | |
| 20260906092108 | 14 | 0.0 | 0.0 | 0.13 | 0.51 | 0.51 | 99 | 1005.3 | |
| 20260906091104 | 14 | 0.0 | 0.0 | 0.05 | 0.46 | 0.46 | 99 | 1005.4 | |
| 20260906090142 | 14 | 0.0 | 0.0 | 0.05 | 0.46 | 0.46 | 99 | 1005.6 | |
| 20260906085119 | 14 | 0.0 | 0.0 | 0.05 | 0.46 | 0.46 | 99 | 1005.7 | |
| 20260906084114 | 14 | 0.0 | 4.8 | 0.05 | 0.46 | 0.46 | 99 | 1005.8 | |
| 20260906083051 | 14 | 0.0 | 0.0 | 0.05 | 0.46 | 0.46 | 99 | 1005.8 | |
| 20260906082048 | 14 | 0.0 | 0.0 | 0.05 | 0.38 | 0.38 | 99 | 1005.9 | |
| 20260906081103 | 14 | 318 | 1.6 | 12.9 | 0.10 | 0.38 | 0.38 | 99 | 1006.1 |
| 20260906080039 | 14 | 0.0 | 6.4 | 0.13 | 0.38 | 0.38 | 99 | 1006.3 | |
| 20260906075036 | 13 | 349 | 0.0 | 12.9 | 0.13 | 0.38 | 0.38 | 99 | 1006.3 |
| 20260906074032 | 13 | 326 | 0.0 | 12.9 | 0.18 | 0.38 | 0.38 | 99 | 1006.4 |
| 20260906073028 | 13 | 332 | 3.2 | 14.5 | 0.20 | 0.38 | 0.38 | 99 | 1006.4 |
| 20260906072027 | 13 | 351 | 0.0 | 12.9 | 0.18 | 0.33 | 0.33 | 99 | 1006.6 |
| 20260906071021 | 13 | 328 | 4.8 | 17.7 | 0.15 | 0.30 | 0.30 | 99 | 1006.7 |
| 20260906070019 | 13 | 320 | 8.0 | 17.7 | 0.13 | 0.28 | 0.28 | 99 | 1006.9 |
| 20260906065115 | 13 | 336 | 9.7 | 19.3 | 0.15 | 0.28 | 0.28 | 99 | 1006.9 |
| 20260906064132 | 13 | 317 | 16.1 | 20.9 | 0.13 | 0.20 | 0.20 | 99 | 1006.9 |
| 20260906063110 | 13 | 337 | 17.7 | 24.1 | 0.15 | 0.18 | 0.18 | 99 | 1007.0 |
| 20260906062106 | 13 | 309 | 19.3 | 24.1 | 0.13 | 0.15 | 0.15 | 99 | 1007.1 |
| 20260906061100 | 12 | 355 | 20.9 | 27.4 | 0.13 | 0.15 | 0.15 | 98 | 1007.4 |
| 20260906060057 | 12 | 15 | 22.5 | 30.6 | 0.13 | 0.15 | 0.15 | 98 | 1007.4 |
| 20260906055055 | 12 | 319 | 24.1 | 35.4 | 0.10 | 0.13 | 0.13 | 97 | 1007.6 |
| 20260906054111 | 12 | 336 | 25.7 | 37.0 | 0.05 | 0.10 | 0.10 | 97 | 1007.5 |
| 20260906053046 | 12 | 12 | 24.1 | 40.2 | 0.00 | 0.03 | 0.03 | 97 | 1007.4 |
| 20260906052044 | 12 | 346 | 24.1 | 37.0 | 0.00 | 0.03 | 0.03 | 96 | 1007.6 |
| 20260906051039 | 12 | 354 | 30.6 | 43.5 | 0.00 | 0.03 | 0.03 | 96 | 1007.8 |
| 20260906050037 | 12 | 350 | 25.7 | 38.6 | 0.00 | 0.03 | 0.03 | 96 | 1007.8 |
| 20260906045054 | 12 | 334 | 25.7 | 37.0 | 0.00 | 0.03 | 0.03 | 95 | 1008.1 |
| 20260906044029 | 12 | 350 | 27.4 | 37.0 | 0.00 | 0.03 | 0.03 | 95 | 1008.3 |
| 20260906043026 | 12 | 325 | 30.6 | 43.5 | 0.00 | 0.03 | 0.03 | 95 | 1008.3 |
| 20260906042021 | 12 | 342 | 25.7 | 46.7 | 0.00 | 0.03 | 0.03 | 96 | 1008.6 |
| 20260906041018 | 12 | 354 | 29.0 | 43.5 | 0.03 | 0.03 | 0.03 | 96 | 1008.8 |
| 20260906040115 | 12 | 322 | 37.0 | 57.9 | 0.03 | 0.03 | 0.03 | 95 | 1008.9 |
| 20260906035111 | 12 | 334 | 32.2 | 48.3 | 0.03 | 0.03 | 0.03 | 93 | 1009.0 |
| 20260906034129 | 12 | 332 | 29.0 | 40.2 | 0.03 | 0.03 | 0.03 | 93 | 1009.3 |
| 20260906033106 | 12 | 355 | 29.0 | 41.8 | 0.03 | 0.03 | 0.03 | 92 | 1009.5 |
| 20260906032102 | 12 | 356 | 29.0 | 37.0 | 0.03 | 0.03 | 0.03 | 91 | 1009.6 |
| 20260906031058 | 12 | 3 | 27.4 | 43.5 | 0.00 | 0.00 | 0.00 | 90 | 1009.9 |
| 20260906030057 | 12 | 339 | 25.7 | 35.4 | 0.00 | 0.00 | 0.00 | 89 | 1010.1 |
| 20260906025054 | 12 | 344 | 29.0 | 45.1 | 0.00 | 0.00 | 0.00 | 88 | 1010.2 |
| 20260906024047 | 12 | 346 | 27.4 | 40.2 | 0.00 | 0.00 | 0.00 | 87 | 1010.1 |
| 20260906023045 | 12 | 340 | 29.0 | 45.1 | 0.00 | 0.00 | 0.00 | 85 | 1010.1 |
| 20260906022040 | 12 | 5 | 29.0 | 37.0 | 0.00 | 0.00 | 0.00 | 84 | 1010.2 |
| 20260906021037 | 13 | 4 | 30.6 | 43.5 | 0.00 | 0.00 | 0.00 | 84 | 1010.3 |
| 20260906020053 | 13 | 0 | 30.6 | 41.8 | 0.00 | 0.00 | 0.00 | 83 | 1010.4 |
| 20260906015030 | 13 | 336 | 30.6 | 48.3 | 0.00 | 0.03 | 0.00 | 83 | 1010.7 |
| 20260906014026 | 13 | 0 | 30.6 | 43.5 | 0.00 | 0.03 | 0.00 | 82 | 1010.9 |
| 20260906013024 | 13 | 357 | 33.8 | 59.5 | 0.00 | 0.03 | 0.00 | 81 | 1011.0 |
| 20260906012022 | 13 | 339 | 37.0 | 54.7 | 0.00 | 0.03 | 0.00 | 81 | 1011.2 |
| 20260906011016 | 13 | 348 | 30.6 | 43.5 | 0.00 | 0.03 | 0.00 | 80 | 1011.4 |
| 20260906010115 | 13 | 336 | 33.8 | 45.1 | 0.00 | 0.03 | 0.00 | 80 | 1011.6 |
| 20260906005111 | 13 | 356 | 38.6 | 54.7 | 0.00 | 0.03 | 0.00 | 80 | 1011.8 |
| 20260906004106 | 13 | 355 | 33.8 | 48.3 | 0.00 | 0.03 | 0.00 | 80 | 1012.1 |
| 20260906003144 | 13 | 346 | 33.8 | 51.5 | 0.00 | 0.03 | 0.00 | 81 | 1012.4 |
| 20260906002122 | 13 | 359 | 32.2 | 57.9 | 0.00 | 0.03 | 0.00 | 80 | 1012.7 |
| 20260906001025 | 13 | 340 | 35.4 | 59.5 | 0.00 | 0.03 | 0.00 | 80 | 1013.0 |
| 20260906000022 | 13 | 325 | 33.8 | 43.5 | 0.00 | 0.03 | 0.00 | 78 | 1013.1 |
| 20260905235018 | 13 | 353 | 33.8 | 48.3 | 0.00 | 0.03 | 0.00 | 79 | 1013.3 |
| 20260905234115 | 13 | 351 | 35.4 | 46.7 | 0.00 | 0.03 | 0.00 | 79 | 1013.3 |
| 20260905233111 | 13 | 341 | 38.6 | 53.1 | 0.00 | 0.03 | 0.00 | 78 | 1013.3 |
| 20260905232108 | 13 | 320 | 32.2 | 54.7 | 0.00 | 0.03 | 0.00 | 79 | 1013.4 |
| 20260905231106 | 13 | 330 | 35.4 | 54.7 | 0.00 | 0.03 | 0.00 | 80 | 1013.4 |
| 20260905225059 | 13 | 341 | 29.0 | 45.1 | 0.00 | 0.03 | 0.00 | 80 | 1014.1 |
| 20260905224054 | 13 | 338 | 30.6 | 45.1 | 0.00 | 0.03 | 0.00 | 81 | 1014.2 |
| 20260905223113 | 13 | 341 | 29.0 | 40.2 | 0.00 | 0.03 | 0.00 | 81 | 1014.2 |
| 20260905222047 | 13 | 348 | 25.7 | 37.0 | 0.00 | 0.03 | 0.00 | 82 | 1014.2 |
| 20260905221046 | 13 | 350 | 22.5 | 29.0 | 0.00 | 0.03 | 0.00 | 83 | 1014.5 |
| 20260905220041 | 13 | 343 | 24.1 | 33.8 | 0.00 | 0.03 | 0.00 | 83 | 1014.8 |
| 20260905215058 | 13 | 334 | 22.5 | 33.8 | 0.00 | 0.03 | 0.00 | 83 | 1015.1 |
| 20260905214034 | 13 | 333 | 20.9 | 30.6 | 0.00 | 0.03 | 0.00 | 84 | 1015.4 |
| 20260905213032 | 13 | 346 | 24.1 | 33.8 | 0.00 | 0.03 | 0.00 | 85 | 1015.5 |
| 20260905212028 | 12 | 358 | 22.5 | 33.8 | 0.00 | 0.03 | 0.00 | 86 | 1015.5 |
| 20260905211023 | 12 | 331 | 25.7 | 35.4 | 0.00 | 0.03 | 0.00 | 87 | 1015.8 |
| 20260905210019 | 12 | 349 | 22.5 | 35.4 | 0.00 | 0.03 | 0.00 | 88 | 1015.9 |
| 20260905205018 | 12 | 359 | 20.9 | 32.2 | 0.00 | 0.03 | 0.00 | 89 | 1015.9 |
| 20260905204112 | 12 | 3 | 24.1 | 35.4 | 0.00 | 0.03 | 0.00 | 91 | 1015.7 |
| 20260905203131 | 12 | 349 | 20.9 | 30.6 | 0.00 | 0.03 | 0.00 | 92 | 1015.8 |
| 20260905202105 | 12 | 358 | 17.7 | 24.1 | 0.00 | 0.03 | 0.00 | 94 | 1015.8 |
| 20260905201103 | 12 | 356 | 20.9 | 27.4 | 0.00 | 0.03 | 0.00 | 94 | 1015.8 |
| 20260905200120 | 12 | 342 | 19.3 | 25.7 | 0.00 | 0.03 | 0.00 | 95 | 1015.8 |
| 20260905195055 | 12 | 4 | 16.1 | 20.9 | 0.00 | 0.03 | 0.00 | 95 | 1016.0 |
| 20260905194051 | 12 | 347 | 19.3 | 27.4 | 0.00 | 0.03 | 0.00 | 96 | 1016.0 |
| 20260905193048 | 12 | 344 | 19.3 | 24.1 | 0.00 | 0.03 | 0.00 | 96 | 1016.0 |
| 20260905192045 | 12 | 339 | 16.1 | 22.5 | 0.00 | 0.03 | 0.00 | 96 | 1015.9 |